PROFILE

 METAR AND TAF INFORMATION
ADDS - METARS form results

(2307 UTC 26 May 2019)
http://aviationweather.gov/metar/data/
 
DTMB 262300Z 21006KT 9999 FEW046 18/12 Q1008
DTMB 262230Z 20006KT 9999 FEW030 18/12 Q1008
TAF DTMB 261700Z 2618/2718 28022KT 9999 FEW034 PROB40 TEMPO 2617/2621 VRB20G30KT 4000 -SHRA FEW026CB BECMG 2621/2623 23012KT 

 AIRPORT MAP

 RUNWAY INFORMATION
Runway 07 Runway length 9678 ft Runway width 148 ft
Runway elevation 8 ft Runway displaced threshold 0 ft Runway heading 74
Runway 25 Runway length 9678 ft Runway width 148 ft
Runway elevation 8 ft Runway displaced threshold 0 ft Runway heading 254

 AIRPORT FREQUENCIES
Type APP Name BOURGUIBA Frequency 119.3 MHZ
Type ATIS Name MONASTIR A Frequency 113.1 MHZ
Type TWR Name BOURGUIBA Frequency 118.3 MHZ

 AIRPORT NEAR NAVIGATION AIDS
Type VOR-DME Name Monastir Frequency 113100 KHZ